User: anonymous   Login
Location: Unspecified
(0.0000°N, 0.0000°E)
Time: 01:47:25
(UTC+00:00)
Language:

Aussat K3 - Orbit

View from above orbital plane
View from above orbital plane
View from above satellite
View from above satellite

Ground track
Ground track

The orbit data is extracted from the following two-line orbital elements,

1 18350U 87078A   17324.86087653 -.00000194 +00000-0 +00000-0 0  9992
2 18350 014.7182 016.5835 0010070 280.4560 072.9791 00.98908386015072
Epoch (UTC): 20 November 2017 20:39:39
Eccentricity: 0.0010070
inclination: 14.7182°
perigee height: 36130 km
apogee height: 36215 km
right ascension of ascending node: 16.5835°
argument of perigee: 280.4560°
revolutions per day: 0.98908386
mean anomaly at epoch: 72.9791°
orbit number at epoch: 1507

The dashed part of the orbit path shows where the satellite is in the earth's shadow,  

DLR